This is the latest recevied weather packets stored in our database for station/object S59MA-6. If no packets are shown the sender has not sent any weather packets the latest 10 day(s).
| Time | Temp. | Humidity | Pressure | Rain* | Wind** | Luminosity | Snow |
|---|---|---|---|---|---|---|---|
| 1778354120 | 16.11° C | 66% | 1004.4 hPa | 0 mm | - | - | - |
| 1778353521 | 16.11° C | 65% | 1004.1 hPa | 1.02 mm | - | - | - |
| 1778352920 | 16.67° C | 64% | 1004.1 hPa | 1.52 mm | - | - | - |
| 1778352366 | 16.67° C | 63% | 1004 hPa | 2.54 mm | - | - | - |
| 1778352319 | 16.67° C | 63% | 1004 hPa | 2.54 mm | - | - | - |
| 1778352020 | 17.22° C | 63% | 1003.8 hPa | 3.05 mm | - | - | - |
| 1778351420 | 17.78° C | 62% | 1003.8 hPa | 3.05 mm | - | - | - |
| 1778351120 | 17.78° C | 61% | 1003.7 hPa | 3.05 mm | - | - | - |
| 1778350819 | 17.78° C | 60% | 1003.7 hPa | 3.05 mm | - | - | - |
| 1778350519 | 18.33° C | 60% | 1003.6 hPa | 3.05 mm | - | - | - |
| 1778350220 | 18.89° C | 59% | 1003.6 hPa | 2.03 mm | - | - | - |
| 1778349920 | 18.89° C | 59% | 1003.5 hPa | 1.52 mm | - | - | - |
| 1778349320 | 18.89° C | 58% | 1003.6 hPa | 133.6 mm | - | - | - |
| 1778349019 | 19.44° C | 57% | 1003.6 hPa | 253.75 mm | - | - | - |
| 1778348719 | 19.44° C | 56% | 1003.7 hPa | 253.75 mm | - | - | - |
| 1778348419 | 20° C | 55% | 1003.7 hPa | 253.75 mm | - | - | - |
| 1778347819 | 20.56° C | 53% | 1003.6 hPa | 253.75 mm | - | - | - |
| 1778347519 | 21.11° C | 52% | 1003.7 hPa | 253.75 mm | - | - | - |
| 1778347220 | 21.67° C | 51% | 1003.7 hPa | 253.75 mm | - | - | - |
| 1778346919 | 21.67° C | 50% | 1003.9 hPa | 253.75 mm | - | - | - |
| 1778346620 | 21.67° C | 49% | 1003.9 hPa | 253.75 mm | - | - | - |
| 1778346320 | 21.67° C | 49% | 1003.8 hPa | 253.75 mm | - | - | - |
| 1778346020 | 22.22° C | 49% | 1002.5 hPa | 253.75 mm | - | - | - |
| 1778345719 | 22.22° C | 48% | 1003.8 hPa | 132.08 mm | - | - | - |
| 1778345120 | 22.22° C | 48% | 1003.9 hPa | 0 mm | - | - | - |
* Rain latest hour (hover to see other rain measurements)
** Current wind speed in m/s (hover to see current wind gust speed)